When you browse on this site, cookies collect data to enhance your experience and personalize the content and advertising you see.
Visit our Privacy Policy to learn more. By continuing to use the site, you agree to this use of cookies and data.
  • In Czech Republic
  • List of Countries
  • For 7 days
  • Water Temperature
  • Weather Map
  • Weather Widgets
  • user-avatar
    Login

    Hourly Weather Townsville

    Today, 7 December, Saturday

    Time Temperature Precipitation Wind Pressure Humidity
    00:00 +27°C° 0 mm 4 mps 751 mmHg 86%
    01:00 +27°C° 0 mm 4 mps 751 mmHg 86%
    02:00 +26°C° 0 mm 4 mps 751 mmHg 87%
    03:00 +26°C° 0 mm 4 mps 751 mmHg 88%
    04:00 +26°C° 0 mm 3 mps 751 mmHg 89%
    05:00 +27°C° 0 mm 3 mps 751 mmHg 84%
    06:00 +28°C° 0 mm 4 mps 752 mmHg 79%
    07:00 +29°C° 0 mm 4 mps 753 mmHg 74%
    08:00 +30°C° 0 mm 4 mps 752 mmHg 67%
    09:00 +33°C° 0 mm 4 mps 752 mmHg 60%
    10:00 +34°C° 0 mm 4 mps 752 mmHg 53%
    11:00 +34°C° 0 mm 4 mps 752 mmHg 52%
    12:00 +35°C° 0 mm 4 mps 751 mmHg 51%
    13:00 +35°C° 0 mm 4 mps 751 mmHg 50%
    14:00 +34°C° 0 mm 4 mps 750 mmHg 52%
    15:00 +34°C° 0 mm 5 mps 750 mmHg 54%
    16:00 +33°C° 0 mm 5 mps 750 mmHg 56%
    17:00 +30°C° 0 mm 5 mps 750 mmHg 63%
    18:00 +29°C° 0 mm 4 mps 751 mmHg 69%
    19:00 +28°C° 0 mm 4 mps 751 mmHg 75%
    20:00 +27°C° 0 mm 4 mps 752 mmHg 77%
    21:00 +27°C° 0 mm 4 mps 752 mmHg 79%
    22:00 +27°C° 0 mm 4 mps 753 mmHg 81%
    23:00 +27°C° 0 mm 4 mps 752 mmHg 81%

    Tomorrow, 8 December, Sunday

    Time Temperature Precipitation Wind Pressure Humidity
    00:00 +27°C° 0 mm 4 mps 752 mmHg 82%
    01:00 +26°C° 0 mm 4 mps 752 mmHg 82%
    02:00 +26°C° 0 mm 3 mps 752 mmHg 82%
    03:00 +26°C° 0 mm 3 mps 752 mmHg 83%
    04:00 +25°C° 0 mm 2 mps 752 mmHg 83%
    05:00 +26°C° 0 mm 2 mps 752 mmHg 77%
    06:00 +27°C° 0 mm 3 mps 753 mmHg 70%
    07:00 +28°C° 0 mm 3 mps 753 mmHg 64%
    08:00 +30°C° 0 mm 3 mps 753 mmHg 56%
    09:00 +33°C° 0 mm 3 mps 753 mmHg 48%
    10:00 +34°C° 0 mm 3 mps 753 mmHg 40%
    11:00 +35°C° 0 mm 3 mps 753 mmHg 38%
    12:00 +35°C° 0 mm 4 mps 752 mmHg 36%
    13:00 +36°C° 0 mm 4 mps 752 mmHg 34%
    14:00 +35°C° 0 mm 4 mps 752 mmHg 38%
    15:00 +34°C° 0 mm 5 mps 752 mmHg 42%
    16:00 +33°C° 0 mm 5 mps 751 mmHg 47%
    17:00 +30°C° 0 mm 5 mps 752 mmHg 54%
    18:00 +29°C° 0 mm 4 mps 753 mmHg 61%
    19:00 +27°C° 0 mm 4 mps 753 mmHg 69%
    20:00 +26°C° 0 mm 4 mps 754 mmHg 72%
    21:00 +26°C° 0 mm 4 mps 754 mmHg 76%
    22:00 +25°C° 0 mm 4 mps 755 mmHg 79%
    23:00 +25°C° 0 mm 4 mps 754 mmHg 80%

    Day after tomorrow, 9 December, Monday

    Time Temperature Precipitation Wind Pressure Humidity
    00:00 +25°C° 0 mm 4 mps 754 mmHg 82%
    01:00 +25°C° 0 mm 4 mps 754 mmHg 83%
    02:00 +23°C° 0 mm 4 mps 754 mmHg 83%
    03:00 +24°C° 0 mm 3 mps 754 mmHg 84%
    04:00 +22°C° 0 mm 3 mps 753 mmHg 84%
    05:00 +24°C° 0 mm 3 mps 754 mmHg 78%
    06:00 +25°C° 0 mm 3 mps 754 mmHg 73%
    07:00 +26°C° 0 mm 4 mps 754 mmHg 67%
    08:00 +28°C° 0 mm 4 mps 754 mmHg 60%
    09:00 +30°C° 0 mm 5 mps 755 mmHg 53%
    10:00 +32°C° 0 mm 6 mps 755 mmHg 46%
    11:00 +33°C° 0 mm 6 mps 754 mmHg 46%
    12:00 +33°C° 0 mm 6 mps 754 mmHg 46%
    13:00 +34°C° 0 mm 7 mps 753 mmHg 45%
    14:00 +33°C° 0 mm 6 mps 753 mmHg 47%
    15:00 +33°C° 0 mm 6 mps 752 mmHg 49%
    16:00 +33°C° 0 mm 6 mps 752 mmHg 51%
    17:00 +30°C° 0 mm 6 mps 752 mmHg 58%
    18:00 +29°C° 0 mm 6 mps 753 mmHg 66%
    19:00 +27°C° 0 mm 5 mps 753 mmHg 74%
    20:00 +27°C° 0.1 mm 5 mps 753 mmHg 75%
    21:00 +27°C° 0.1 mm 5 mps 754 mmHg 76%
    22:00 +27°C° 0.1 mm 5 mps 754 mmHg 77%
    23:00 +27°C° 0.3 mm 5 mps 754 mmHg 79%

    10 December, Tuesday

    Time Temperature Precipitation Wind Pressure Humidity
    00:00 +26°C° 0.3 mm 5 mps 753 mmHg 81%
    01:00 +26°C° 0.3 mm 5 mps 752 mmHg 82%
    02:00 +26°C° 0.3 mm 5 mps 752 mmHg 82%
    03:00 +26°C° 0.3 mm 5 mps 752 mmHg 81%
    04:00 +26°C° 0.3 mm 4 mps 751 mmHg 81%
    05:00 +26°C° 0.2 mm 4 mps 752 mmHg 79%
    06:00 +26°C° 0.2 mm 4 mps 752 mmHg 78%
    07:00 +27°C° 0.2 mm 4 mps 752 mmHg 76%
    08:00 +28°C° 0 mm 5 mps 752 mmHg 69%
    09:00 +30°C° 0 mm 5 mps 752 mmHg 63%
    10:00 +33°C° 0 mm 5 mps 752 mmHg 56%
    11:00 +33°C° 0.3 mm 6 mps 752 mmHg 55%
    12:00 +34°C° 0.3 mm 7 mps 751 mmHg 54%
    13:00 +34°C° 0.3 mm 7 mps 750 mmHg 53%
    14:00 +34°C° 0.5 mm 8 mps 750 mmHg 54%
    15:00 +34°C° 0.5 mm 8 mps 750 mmHg 54%
    16:00 +34°C° 0.5 mm 8 mps 749 mmHg 54%
    17:00 +32°C° 0.1 mm 8 mps 750 mmHg 60%
    18:00 +30°C° 0.1 mm 7 mps 750 mmHg 66%
    19:00 +28°C° 0.1 mm 6 mps 751 mmHg 72%
    20:00 +28°C° 0 mm 6 mps 751 mmHg 74%
    21:00 +27°C° 0 mm 6 mps 751 mmHg 77%
    22:00 +27°C° 0 mm 6 mps 752 mmHg 80%
    23:00 +27°C° 0.1 mm 5 mps 751 mmHg 79%

    11 December, Wednesday

    Time Temperature Precipitation Wind Pressure Humidity
    00:00 +27°C° 0.1 mm 5 mps 751 mmHg 79%
    01:00 +27°C° 0.1 mm 4 mps 751 mmHg 78%
    02:00 +26°C° 0.1 mm 4 mps 751 mmHg 79%
    03:00 +26°C° 0.1 mm 4 mps 750 mmHg 81%
    04:00 +26°C° 0.1 mm 4 mps 750 mmHg 82%
    05:00 +26°C° 0.1 mm 4 mps 750 mmHg 79%
    06:00 +27°C° 0.1 mm 4 mps 750 mmHg 76%
    07:00 +27°C° 0.1 mm 4 mps 751 mmHg 74%
    08:00 +29°C° 0.1 mm 5 mps 751 mmHg 68%
    09:00 +32°C° 0.1 mm 6 mps 751 mmHg 62%
    10:00 +33°C° 0.1 mm 7 mps 751 mmHg 57%
    11:00 +33°C° 0.5 mm 7 mps 750 mmHg 57%
    12:00 +34°C° 0.5 mm 7 mps 750 mmHg 57%
    13:00 +34°C° 0.5 mm 7 mps 750 mmHg 57%
    14:00 +34°C° 0.3 mm 7 mps 749 mmHg 56%
    15:00 +34°C° 0.3 mm 7 mps 749 mmHg 56%
    16:00 +34°C° 0.3 mm 7 mps 748 mmHg 55%
    17:00 +32°C° 0 mm 6 mps 749 mmHg 62%
    18:00 +30°C° 0 mm 5 mps 749 mmHg 68%
    19:00 +28°C° 0 mm 5 mps 750 mmHg 75%
    20:00 +27°C° 0 mm 5 mps 750 mmHg 79%
    21:00 +27°C° 0 mm 5 mps 751 mmHg 83%
    22:00 +26°C° 0 mm 5 mps 751 mmHg 87%
    23:00 +26°C° 0.1 mm 4 mps 751 mmHg 88%

    12 December, Thursday

    Time Temperature Precipitation Wind Pressure Humidity
    00:00 +26°C° 0.1 mm 4 mps 750 mmHg 90%
    01:00 +25°C° 0.1 mm 4 mps 750 mmHg 91%
    02:00 +25°C° 0 mm 3 mps 750 mmHg 92%
    03:00 +25°C° 0 mm 3 mps 749 mmHg 93%
    04:00 +24°C° 0 mm 3 mps 749 mmHg 93%
    05:00 +25°C° 0 mm 3 mps 750 mmHg 90%
    06:00 +26°C° 0 mm 3 mps 750 mmHg 86%
    07:00 +27°C° 0 mm 3 mps 750 mmHg 82%
    08:00 +29°C° 0 mm 4 mps 750 mmHg 71%
    09:00 +32°C° 0 mm 4 mps 750 mmHg 60%
    10:00 +34°C° 0 mm 5 mps 750 mmHg 49%
    11:00 +34°C° 0 mm 5 mps 750 mmHg 48%
    12:00 +35°C° 0 mm 6 mps 749 mmHg 47%
    13:00 +35°C° 0 mm 6 mps 749 mmHg 46%
    14:00 +35°C° 0 mm 6 mps 748 mmHg 48%
    15:00 +34°C° 0 mm 5 mps 748 mmHg 50%
    16:00 +34°C° 0 mm 5 mps 747 mmHg 52%
    17:00 +32°C° 0 mm 5 mps 748 mmHg 61%
    18:00 +29°C° 0 mm 4 mps 749 mmHg 70%
    19:00 +28°C° 0 mm 4 mps 749 mmHg 79%
    20:00 +27°C° 0 mm 4 mps 750 mmHg 82%
    21:00 +27°C° 0 mm 4 mps 750 mmHg 84%
    22:00 +27°C° 0 mm 4 mps 750 mmHg 87%
    23:00 +26°C° 0 mm 3 mps 750 mmHg 87%
    Show more